User: anonymous   Login
Location: Turtle Rock Observatory
(36.6913°N, 81.9708°W)
Time: 19:16:16
(UTC-04:00)
Language:

Cosmos 1125 Rocket - Orbit

View from above orbital plane
View from above orbital plane
View from above satellite
View from above satellite

Ground track
Ground track

The orbit data is extracted from the following two-line orbital elements,

1 11511U 79078B   15186.48644970  .00000280  00000-0  10387-3 0  9995
2 11511 074.0349 185.1177 0016865 245.3116 114.6281 14.36635212876261
Epoch (UTC): 05 July 2015 11:40:29
Eccentricity: 0.0016865
inclination: 74.0349°
perigee height: 757 km
apogee height: 781 km
right ascension of ascending node: 185.1177°
argument of perigee: 245.3116°
revolutions per day: 14.36635212
mean anomaly at epoch: 114.6281°
orbit number at epoch: 87626

The dashed part of the orbit path shows where the satellite is in the earth's shadow,  

DLR